Windom, MN

9:49 PM CDT on July 27, 2017 (GMT -0500)
Windom Municipal

Weather History for KMWM - December, 2013

Change the Weather History Date:

Monday, December 2, 2013

  Actual Average Record
Temperature  
Mean Temperature 37 °F -  
Max Temperature 44 °F 30 °F 62 °F (1998)
Min Temperature 28 °F 14 °F -9 °F (2005)
Degree Days  
Heating Degree Days 28    
Moisture  
Dew Point 30 °F    
Average Humidity 84    
Maximum Humidity 100    
Minimum Humidity 66    
Precipitation  
Precipitation 0.01 in - - ()
Sea Level Pressure  
Sea Level Pressure 29.61 in    
Wind  
Wind Speed 8 mph (SSE)    
Max Wind Speed 16 mph    
Max Gust Speed 20 mph    
Visibility 8 miles    
Events      
Averages and records for this station are not official NWS values.
T = Trace of Precipitation, MM = Missing Value Source: NWS Daily Summary

Daily Weather History Graph

Daily Weather History Graph

Search for Another Location

Airport or City:

Trip Planner

Search our weather history database for the weather conditions in past years. The results will help you decide how hot, cold, wet, or windy it might be!

Date:

Astronomy

Dec. 02, 2013 Rise Set
Actual Time 7:36 AM CST 4:43 PM CST
Civil Twilight 7:03 AM CST 5:15 PM CST
Nautical Twilight 6:27 AM CST 5:51 PM CST
Astronomical Twilight 5:53 AM CST 6:26 PM CST
Moon 7:01 AM CST (12/2) 4:48 PM CST (12/2)
Length of Visible Light 10h 12m
Length of Day
9h 07m
Waning Crescent, 0% of the Moon is Illuminated
Dec 2
Waning Crescent
Dec 2
New
Dec 9
First Quarter
Dec 17
Full
Dec 25
Last Quarter

Hourly Weather History & Observations

Time (CST) Temp. Windchill Dew Point Humidity Pressure Visibility Wind Dir Wind Speed Gust Speed Precip Events Conditions
12:13 AM 30.2 °F 24.3 °F 24.8 °F 80% 29.84 in 10.0 mi SE 5.8 mph - N/A   Mostly Cloudy
12:32 AM 30.2 °F 24.3 °F 24.8 °F 80% 29.83 in 10.0 mi SSE 5.8 mph - N/A   Scattered Clouds
12:52 AM 30.2 °F 21.9 °F 26.6 °F 86% 29.82 in 10.0 mi SSE 9.2 mph - N/A   Scattered Clouds
1:13 AM 30.2 °F 21.3 °F 26.6 °F 86% 29.81 in 7.0 mi SSE 10.4 mph - N/A   Mostly Cloudy
1:32 AM 32.0 °F 24.8 °F 26.6 °F 80% 29.81 in 10.0 mi SSE 8.1 mph - N/A   Scattered Clouds
1:52 AM 32.0 °F 24.8 °F 26.6 °F 80% 29.80 in 7.0 mi SSE 8.1 mph - N/A   Mostly Cloudy
2:13 AM 32.0 °F 24.8 °F 26.6 °F 80% 29.80 in 7.0 mi SSE 8.1 mph - N/A   Scattered Clouds
2:32 AM 32.0 °F 24.2 °F 28.4 °F 87% 29.79 in 10.0 mi SSE 9.2 mph - N/A   Mostly Cloudy
2:53 AM 32.0 °F 25.6 °F 28.4 °F 87% 29.78 in 7.0 mi SSE 6.9 mph - N/A   Mostly Cloudy
3:12 AM 33.8 °F 27.7 °F 28.4 °F 81% 29.77 in 7.0 mi SSE 6.9 mph - N/A   Mostly Cloudy
3:32 AM 33.8 °F 27.7 °F 28.4 °F 81% 29.77 in 7.0 mi SSE 6.9 mph - N/A   Mostly Cloudy
3:52 AM 33.8 °F 27.7 °F 28.4 °F 81% 29.75 in 7.0 mi SSE 6.9 mph - N/A   Overcast
4:12 AM 32.0 °F 23.6 °F 28.4 °F 87% 29.74 in 7.0 mi SSE 10.4 mph - N/A   Mostly Cloudy
4:33 AM 32.0 °F 24.2 °F 28.4 °F 87% 29.73 in 7.0 mi SSE 9.2 mph - N/A   Scattered Clouds
4:52 AM 30.2 °F 20.2 °F 28.4 °F 93% 29.72 in 7.0 mi SSE 12.7 mph - N/A   Scattered Clouds
5:12 AM 30.2 °F 21.3 °F 28.4 °F 93% 29.71 in 7.0 mi SSE 10.4 mph - N/A   Clear
5:33 AM 30.2 °F 20.8 °F 28.4 °F 93% 29.70 in 7.0 mi SSE 11.5 mph - N/A   Clear
5:52 AM 32.0 °F 24.2 °F 28.4 °F 87% 29.69 in 7.0 mi SSE 9.2 mph - N/A   Clear
6:12 AM 32.0 °F 24.2 °F 28.4 °F 87% 29.68 in 7.0 mi SSE 9.2 mph - N/A   Scattered Clouds
6:32 AM 30.2 °F 20.8 °F 28.4 °F 93% 29.67 in 7.0 mi SSE 11.5 mph - N/A   Mostly Cloudy
6:52 AM 30.2 °F 21.9 °F 26.6 °F 86% 29.66 in 7.0 mi SE 9.2 mph - N/A   Overcast
7:13 AM 30.2 °F 21.9 °F 28.4 °F 93% 29.65 in 7.0 mi SE 9.2 mph - N/A   Overcast
7:32 AM 30.2 °F 20.8 °F 28.4 °F 93% 29.65 in 7.0 mi SE 11.5 mph - N/A   Mostly Cloudy
7:52 AM 30.2 °F 21.3 °F 28.4 °F 93% 29.64 in 7.0 mi SE 10.4 mph - N/A   Mostly Cloudy
8:13 AM 30.2 °F 21.9 °F 28.4 °F 93% 29.64 in 7.0 mi SE 9.2 mph - N/A   Mostly Cloudy
8:32 AM 30.2 °F 21.3 °F 28.4 °F 93% 29.63 in 5.0 mi SE 10.4 mph - N/A   Scattered Clouds
8:52 AM 32.0 °F 24.2 °F 28.4 °F 87% 29.64 in 5.0 mi SE 9.2 mph - N/A   Mostly Cloudy
9:12 AM 32.0 °F 23.0 °F 28.4 °F 87% 29.63 in 5.0 mi SE 11.5 mph 18.4 mph N/A   Scattered Clouds
9:32 AM 33.8 °F 24.8 °F 28.4 °F 81% 29.62 in 7.0 mi SE 12.7 mph - N/A   Scattered Clouds
9:52 AM 33.8 °F 25.3 °F 28.4 °F 81% 29.62 in 5.0 mi SSE 11.5 mph - N/A   Mostly Cloudy
10:12 AM 33.8 °F 25.8 °F 30.2 °F 87% 29.61 in 3.0 mi SE 10.4 mph - N/A   Mostly Cloudy
10:33 AM 33.8 °F 25.3 °F 30.2 °F 87% 29.59 in 4.0 mi SE 11.5 mph - N/A   Mostly Cloudy
10:52 AM 33.8 °F 25.3 °F 32.0 °F 93% 29.59 in 3.0 mi ESE 11.5 mph - 0.01 in   Mostly Cloudy
11:12 AM 35.6 °F 26.6 °F 33.8 °F 93% 29.58 in 4.0 mi SE 13.8 mph - N/A   Mostly Cloudy
11:33 AM 37.4 °F 28.9 °F 33.8 °F 87% 29.58 in 4.0 mi SSE 13.8 mph - N/A   Mostly Cloudy
11:52 AM 37.4 °F 29.8 °F 35.6 °F 93% 29.56 in 5.0 mi SE 11.5 mph - N/A   Mostly Cloudy
12:12 PM 39.2 °F 31.6 °F 35.6 °F 87% 29.56 in 5.0 mi SE 12.7 mph - N/A   Scattered Clouds
12:33 PM 39.2 °F 30.5 °F 35.6 °F 87% 29.54 in 5.0 mi SSE 16.1 mph - N/A   Scattered Clouds
12:52 PM 41.0 °F 32.8 °F 35.6 °F 81% 29.53 in 7.0 mi SSE 16.1 mph - N/A   Scattered Clouds
1:12 PM 42.8 °F 35.4 °F 35.6 °F 76% 29.51 in 7.0 mi SSE 15.0 mph 19.6 mph N/A   Scattered Clouds
1:33 PM 41.0 °F 33.1 °F 35.6 °F 81% 29.50 in 7.0 mi SSE 15.0 mph - N/A   Scattered Clouds
1:52 PM 42.8 °F 37.0 °F 35.6 °F 76% 29.51 in 10.0 mi SSE 10.4 mph 17.3 mph N/A   Scattered Clouds
2:12 PM 44.6 °F 38.8 °F 35.6 °F 71% 29.50 in 10.0 mi SSE 11.5 mph - N/A   Scattered Clouds
2:33 PM 44.6 °F 38.1 °F 35.6 °F 71% 29.49 in 10.0 mi South 13.8 mph - N/A   Clear
2:52 PM 44.6 °F 39.7 °F 35.6 °F 71% 29.49 in 10.0 mi South 9.2 mph - N/A   Clear
3:12 PM 44.6 °F 39.7 °F 33.8 °F 66% 29.49 in 10.0 mi South 9.2 mph - N/A   Clear
3:32 PM 44.6 °F 40.2 °F 33.8 °F 66% 29.50 in 10.0 mi South 8.1 mph - N/A   Clear
3:52 PM 44.6 °F 40.7 °F 33.8 °F 66% 29.50 in 10.0 mi South 6.9 mph - N/A   Clear
4:13 PM 44.6 °F 40.7 °F 33.8 °F 66% 29.49 in 10.0 mi South 6.9 mph - N/A   Clear
4:32 PM 42.8 °F 39.3 °F 33.8 °F 70% 29.49 in 10.0 mi South 5.8 mph - N/A   Clear
4:52 PM 39.2 °F 35.0 °F 33.8 °F 81% 29.50 in 10.0 mi SSE 5.8 mph - N/A   Clear
5:13 PM 39.2 °F 34.2 °F 33.8 °F 81% 29.49 in 10.0 mi SSE 6.9 mph - N/A   Clear
5:32 PM 37.4 °F 34.9 °F 32.0 °F 81% 29.50 in 10.0 mi SSE 3.5 mph - N/A   Clear
5:52 PM 37.4 °F 34.9 °F 32.0 °F 81% 29.51 in 10.0 mi South 3.5 mph - N/A   Clear
6:13 PM 37.4 °F 34.9 °F 33.8 °F 87% 29.51 in 10.0 mi South 3.5 mph - N/A   Clear
6:32 PM 37.4 °F 34.9 °F 32.0 °F 81% 29.52 in 10.0 mi South 3.5 mph - N/A   Clear
6:52 PM 37.4 °F - 32.0 °F 81% 29.53 in 10.0 mi Calm Calm - N/A   Scattered Clouds
7:13 PM 33.8 °F - 28.4 °F 81% 29.54 in 10.0 mi Calm Calm - N/A   Clear
7:32 PM 33.8 °F 30.8 °F 30.2 °F 87% 29.54 in 7.0 mi SSW 3.5 mph - N/A   Unknown
7:52 PM 33.8 °F 30.8 °F 30.2 °F 87% 29.53 in 7.0 mi South 3.5 mph - N/A   Unknown
8:12 PM 35.6 °F - 30.2 °F 81% 29.53 in 7.0 mi Calm Calm - N/A   Unknown
8:32 PM 32.0 °F - 28.4 °F 87% 29.53 in 7.0 mi Calm Calm - N/A   Unknown
8:53 PM 32.0 °F - 30.2 °F 93% 29.53 in 7.0 mi Calm Calm - N/A   Unknown
9:12 PM 33.8 °F - 30.2 °F 87% 29.53 in 7.0 mi Calm Calm - N/A   Unknown
9:32 PM 33.8 °F 28.6 °F 30.2 °F 87% 29.52 in 7.0 mi SSE 5.8 mph - N/A   Unknown
9:53 PM 33.8 °F - 30.2 °F 87% 29.52 in 7.0 mi Calm Calm - N/A   Unknown
10:12 PM 32.0 °F - 28.4 °F 87% 29.52 in 7.0 mi Calm Calm - N/A   Mostly Cloudy
10:32 PM 32.0 °F 28.7 °F 28.4 °F 87% 29.53 in 7.0 mi West 3.5 mph - N/A   Unknown
10:53 PM 32.0 °F 28.7 °F 28.4 °F 87% 29.54 in 7.0 mi West 3.5 mph - N/A   Overcast
11:12 PM 33.8 °F 29.6 °F 28.4 °F 81% 29.54 in 10.0 mi West 4.6 mph - N/A   Unknown
11:32 PM 32.0 °F 24.8 °F 28.4 °F 87% 29.55 in 10.0 mi NW 8.1 mph - N/A   Unknown
11:53 PM 28.4 °F 21.2 °F 28.4 °F 100% 29.55 in 4.0 mi NNW 6.9 mph - N/A   Clear